Previsão horária em Abbasanta

Hoje, 18 Abril, Domingo

Tempo Temperatura Precipitação Vento Pressão Humidade
00:00 +7°C° 0 mm 1 m/s 730 mmHg 78%
01:00 +7°C° 0 mm 1 m/s 730 mmHg 78%
02:00 +7°C° 0 mm 1 m/s 730 mmHg 79%
03:00 +7°C° 0 mm 1 m/s 730 mmHg 80%
04:00 +7°C° 0 mm 1 m/s 729 mmHg 81%
05:00 +7°C° 0.1 mm 1 m/s 730 mmHg 81%
06:00 +6°C° 0.1 mm 2 m/s 730 mmHg 81%
07:00 +6°C° 0 mm 2 m/s 729 mmHg 80%
08:00 +7°C° 0.2 mm 2 m/s 729 mmHg 76%
09:00 +9°C° 0.2 mm 2 m/s 730 mmHg 72%
10:00 +10°C° 0.2 mm 2 m/s 730 mmHg 68%
11:00 +10°C° 0.8 mm 2 m/s 730 mmHg 70%
12:00 +10°C° 0.8 mm 2 m/s 730 mmHg 72%
13:00 +10°C° 0 mm 3 m/s 730 mmHg 74%
14:00 +10°C° 1.5 mm 3 m/s 730 mmHg 76%
15:00 +8°C° 1.5 mm 4 m/s 730 mmHg 79%
16:00 +8°C° 1.5 mm 4 m/s 730 mmHg 81%
17:00 +8°C° 0.6 mm 3 m/s 730 mmHg 84%
18:00 +7°C° 0.6 mm 2 m/s 731 mmHg 86%
19:00 +6°C° 0.6 mm 2 m/s 731 mmHg 88%
20:00 +6°C° 0 mm 2 m/s 731 mmHg 89%
21:00 +5°C° 0 mm 2 m/s 732 mmHg 89%
22:00 +5°C° 0 mm 2 m/s 732 mmHg 90%
23:00 +5°C° 0.1 mm 2 m/s 732 mmHg 90%

Amanhã, 19 Abril, Segunda-feira

Tempo Temperatura Precipitação Vento Pressão Humidade
00:00 +5°C° 0.1 mm 1 m/s 732 mmHg 90%
01:00 +5°C° 0.1 mm 1 m/s 732 mmHg 90%
02:00 +5°C° 0 mm 1 m/s 732 mmHg 90%
03:00 +5°C° 0 mm 1 m/s 732 mmHg 90%
04:00 +5°C° 0 mm 1 m/s 732 mmHg 90%
05:00 +6°C° 0.1 mm 1 m/s 732 mmHg 90%
06:00 +7°C° 0.1 mm 1 m/s 732 mmHg 89%
07:00 +7°C° 0.1 mm 1 m/s 732 mmHg 88%
08:00 +8°C° 0.2 mm 2 m/s 732 mmHg 83%
09:00 +10°C° 0.2 mm 3 m/s 733 mmHg 77%
10:00 +10°C° 0.2 mm 5 m/s 733 mmHg 71%
11:00 +10°C° 0.4 mm 5 m/s 733 mmHg 72%
12:00 +10°C° 0.4 mm 5 m/s 733 mmHg 73%
13:00 +10°C° 0.4 mm 6 m/s 733 mmHg 73%
14:00 +10°C° 0.2 mm 6 m/s 733 mmHg 70%
15:00 +11°C° 0.2 mm 6 m/s 732 mmHg 67%
16:00 +11°C° 0.2 mm 6 m/s 732 mmHg 63%
17:00 +9°C° 0 mm 5 m/s 732 mmHg 70%
18:00 +8°C° 0 mm 4 m/s 733 mmHg 77%
19:00 +8°C° 0 mm 2 m/s 733 mmHg 84%
20:00 +7°C° 0 mm 2 m/s 733 mmHg 86%
21:00 +7°C° 0 mm 1 m/s 733 mmHg 88%
22:00 +6°C° 0 mm 1 m/s 733 mmHg 90%
23:00 +6°C° 0 mm 1 m/s 733 mmHg 90%

Depois de amanhã, 20 Abril, Terça-feira

Tempo Temperatura Precipitação Vento Pressão Humidade
00:00 +6°C° 0 mm 1 m/s 733 mmHg 90%
01:00 +6°C° 0 mm 1 m/s 733 mmHg 91%
02:00 +6°C° 0 mm 1 m/s 733 mmHg 91%
03:00 +6°C° 0 mm 1 m/s 733 mmHg 91%
04:00 +6°C° 0 mm 1 m/s 732 mmHg 91%
05:00 +6°C° 0 mm 1 m/s 733 mmHg 89%
06:00 +7°C° 0 mm 1 m/s 733 mmHg 87%
07:00 +8°C° 0 mm 1 m/s 733 mmHg 85%
08:00 +10°C° 0 mm 1 m/s 733 mmHg 74%
09:00 +12°C° 0 mm 1 m/s 733 mmHg 63%
10:00 +14°C° 0 mm 1 m/s 733 mmHg 53%
11:00 +15°C° 0 mm 1 m/s 733 mmHg 50%
12:00 +16°C° 0 mm 2 m/s 733 mmHg 48%
13:00 +16°C° 0 mm 2 m/s 732 mmHg 46%
14:00 +16°C° 0 mm 3 m/s 732 mmHg 47%
15:00 +16°C° 0 mm 3 m/s 732 mmHg 48%
16:00 +16°C° 0 mm 3 m/s 732 mmHg 49%
17:00 +14°C° 0 mm 2 m/s 732 mmHg 58%
18:00 +12°C° 0 mm 2 m/s 732 mmHg 68%
19:00 +10°C° 0 mm 1 m/s 732 mmHg 77%
20:00 +9°C° 0 mm 1 m/s 732 mmHg 79%
21:00 +9°C° 0 mm 1 m/s 732 mmHg 80%
22:00 +8°C° 0 mm 1 m/s 733 mmHg 82%
23:00 +8°C° 0 mm 1 m/s 733 mmHg 81%

21 Abril, Quarta-feira

Tempo Temperatura Precipitação Vento Pressão Humidade
00:00 +7°C° 0 mm 2 m/s 733 mmHg 80%
01:00 +8°C° 0 mm 2 m/s 733 mmHg 78%
02:00 +7°C° 0 mm 2 m/s 732 mmHg 78%
03:00 +7°C° 0 mm 2 m/s 732 mmHg 78%
04:00 +7°C° 0 mm 2 m/s 732 mmHg 77%
05:00 +8°C° 0 mm 2 m/s 732 mmHg 75%
06:00 +9°C° 0 mm 2 m/s 732 mmHg 72%
07:00 +10°C° 0 mm 2 m/s 732 mmHg 70%
08:00 +13°C° 0 mm 2 m/s 732 mmHg 63%
09:00 +15°C° 0 mm 2 m/s 732 mmHg 55%
10:00 +17°C° 0 mm 2 m/s 732 mmHg 48%
11:00 +17°C° 0 mm 2 m/s 732 mmHg 48%
12:00 +18°C° 0 mm 2 m/s 732 mmHg 48%
13:00 +19°C° 0 mm 3 m/s 732 mmHg 47%
14:00 +18°C° 0.2 mm 3 m/s 732 mmHg 52%
15:00 +18°C° 0.2 mm 3 m/s 731 mmHg 56%
16:00 +17°C° 0.2 mm 2 m/s 731 mmHg 60%
17:00 +16°C° 0.4 mm 2 m/s 731 mmHg 68%
18:00 +14°C° 0.4 mm 2 m/s 731 mmHg 77%
19:00 +13°C° 0.4 mm 2 m/s 731 mmHg 85%
20:00 +13°C° 0.2 mm 2 m/s 731 mmHg 87%
21:00 +12°C° 0.2 mm 2 m/s 732 mmHg 90%
22:00 +12°C° 0.2 mm 2 m/s 732 mmHg 92%
23:00 +10°C° 0 mm 2 m/s 732 mmHg 92%

22 Abril, Quinta-feira

Tempo Temperatura Precipitação Vento Pressão Humidade
00:00 +10°C° 0 mm 2 m/s 732 mmHg 93%
01:00 +10°C° 0 mm 2 m/s 732 mmHg 93%
02:00 +10°C° 0 mm 2 m/s 731 mmHg 92%
03:00 +10°C° 0 mm 2 m/s 731 mmHg 92%
04:00 +10°C° 0 mm 2 m/s 731 mmHg 92%
05:00 +10°C° 0 mm 2 m/s 731 mmHg 91%
06:00 +12°C° 0 mm 2 m/s 731 mmHg 90%
07:00 +12°C° 0 mm 2 m/s 731 mmHg 89%
08:00 +13°C° 0.1 mm 2 m/s 731 mmHg 86%
09:00 +14°C° 0.1 mm 2 m/s 732 mmHg 82%
10:00 +15°C° 0.1 mm 2 m/s 732 mmHg 78%
11:00 +15°C° 0.5 mm 2 m/s 732 mmHg 80%
12:00 +15°C° 0.5 mm 2 m/s 732 mmHg 81%
13:00 +15°C° 0.5 mm 2 m/s 732 mmHg 82%
14:00 +14°C° 0.4 mm 2 m/s 732 mmHg 83%
15:00 +14°C° 0.4 mm 2 m/s 731 mmHg 83%
16:00 +13°C° 0.4 mm 1 m/s 731 mmHg 84%
17:00 +13°C° 0.3 mm 1 m/s 731 mmHg 86%
18:00 +12°C° 0.3 mm 1 m/s 731 mmHg 88%
19:00 +12°C° 0.3 mm 2 m/s 731 mmHg 89%
20:00 +12°C° 0 mm 2 m/s 731 mmHg 90%
21:00 +10°C° 0 mm 2 m/s 732 mmHg 90%
22:00 +9°C° 0 mm 2 m/s 732 mmHg 91%
23:00 +9°C° 0 mm 2 m/s 732 mmHg 91%

23 Abril, Sexta-feira

Tempo Temperatura Precipitação Vento Pressão Humidade
00:00 +9°C° 0 mm 2 m/s 732 mmHg 92%
01:00 +8°C° 0 mm 2 m/s 732 mmHg 93%
02:00 +8°C° 0 mm 2 m/s 732 mmHg 93%
03:00 +8°C° 0 mm 2 m/s 731 mmHg 93%
04:00 +8°C° 0 mm 2 m/s 731 mmHg 93%
05:00 +9°C° 0 mm 2 m/s 732 mmHg 92%
06:00 +9°C° 0 mm 2 m/s 732 mmHg 90%
07:00 +10°C° 0 mm 2 m/s 732 mmHg 88%
08:00 +13°C° 0.2 mm 2 m/s 732 mmHg 80%
09:00 +15°C° 0.2 mm 2 m/s 733 mmHg 73%
10:00 +17°C° 0.2 mm 2 m/s 733 mmHg 66%
11:00 +17°C° 1 mm 2 m/s 733 mmHg 67%
12:00 +17°C° 1 mm 2 m/s 733 mmHg 69%
13:00 +17°C° 1 mm 2 m/s 733 mmHg 71%
14:00 +17°C° 0.8 mm 2 m/s 733 mmHg 71%
15:00 +17°C° 0.8 mm 2 m/s 733 mmHg 71%
16:00 +17°C° 0.8 mm 2 m/s 733 mmHg 71%
17:00 +16°C° 0.2 mm 1 m/s 733 mmHg 76%
18:00 +15°C° 0.2 mm 1 m/s 734 mmHg 81%
19:00 +13°C° 0.2 mm 1 m/s 734 mmHg 86%
20:00 +12°C° 0 mm 1 m/s 734 mmHg 88%
21:00 +12°C° 0 mm 1 m/s 735 mmHg 89%
22:00 +11°C° 0 mm 1 m/s 735 mmHg 91%
23:00 +11°C° 0 mm 1 m/s 735 mmHg 90%
Mostrar mais